Regional Weather Roundup
Issued by NWS

Home | Current Version | Previous Version | Text Only | Print | Product List | Glossary On
Versions: 1 2 3 4 5 6 7 8 9 10 11 12 13 14 15 16 17 18 19 20 21 22 23 24 25 26 27 28 29 30 31 32 33 34 35 36 37 38 39 40 41 42 43 44 45 46 47 48 49 50
000
ASUS44 KMEG 031900
RWRTN
TENNESSEE HOURLY STATE WEATHER ROUNDUP
NATIONAL WEATHER SERVICE MEMPHIS TN
100 PM CST TUE MAR 03 2015

TNZ002-004-019-021-049-052-054-088>092-032000-
WEST TENNESSEE

CITY           SKY/WX    TMP DP  RH WIND       PRES   REMARKS
MEMPHIS INTL   DRZL/FOG  57  54  89 S12G23    30.01F VSB 1/2
NWS MEMPHIS      N/A     57 N/A N/A MISG        N/A
JACKSON        CLOUDY    59  55  87 S13       29.98F
DYERSBURG      CLOUDY    55  43  62 S5        29.98F
UNION CITY     CLOUDY    54  54 100 SW10      29.94F
PARIS          CLOUDY    57  54  88 SW20      29.96F
LEXINGTON      CLOUDY    55  55 100 S10       30.00F
SAVANNAH       CLOUDY    57  57 100 S8        30.03F
$$

TNZ008-025-027-028-033-062-065-066-032000-
NORTH MIDDLE TENNESSEE

CITY           SKY/WX    TMP DP  RH WIND       PRES   REMARKS
NASHVILLE      CLOUDY    62  56  80 S14G21    30.01F
CLARKSVILLE    CLOUDY    60  57  89 S17       29.95F
COOKEVILLE     CLOUDY    61  57  88 SW10      30.02F
CROSSVILLE     CLOUDY    52  51  97 S7G17     30.06F FOG
$$

TNZ061-075-076-078-094-096-097-032000-
SOUTH MIDDLE TENNESSEE

CITY           SKY/WX    TMP DP  RH WIND       PRES   REMARKS
FAYETTEVILLE   CLOUDY    52  52 100 S7          N/A  VSB 3/4
TULLAHOMA      CLOUDY    55  55 100 S9        30.07F
WINCHESTER     CLOUDY    55  54  94 S12       30.07F
COLUMBIA       CLOUDY   N/A N/A N/A S12       30.01F
SHELBYVILLE    CLOUDY    61  57  88 S12       30.05F
$$

TNZ017-018-042-046-047-032000-
NORTHEAST TENNESSEE

CITY           SKY/WX    TMP DP  RH WIND       PRES   REMARKS
TRI CITIES     LGT RAIN  49  41  74 N3        30.09F
ELIZABETHTON   CLOUDY    54  46  76 E5        30.07F
$$

TNZ012-013-036-069-073-074-032000-
CENTRAL EAST TENNESSEE

CITY           SKY/WX    TMP DP  RH WIND       PRES   REMARKS
KNOXVILLE      CLOUDY    49  44  83 NW3       30.08F
OAK RIDGE      CLOUDY    47  44  90 W3        30.10F
GATLINBURG     MOCLDY    55  43  62 S3        30.07F
$$

TNZ083-085-099-032000-
SOUTHEAST TENNESSEE

CITY           SKY/WX    TMP DP  RH WIND       PRES   REMARKS
CHATTANOOGA    CLOUDY    53  51  93 S7        30.11F FOG
$$

SKY/WX REPORTED AS FAIR MEANS FEW OR NO CLOUDS BELOW
12 THOUSAND FEET.



USA.gov is the U.S. government's official web portal to all federal, state and local government web resources and services.